KE8RXN Weather Reports


Display with metric or nautical units.
time (UTC)temp
F
wind
direction
speed
MPH
gust
MPH
rain 1hr
in
rain 24hr
in
rain mn
in
humidity
%
barometer
mb
20260510155815 56 331 1.0 1.0 0.00 0.00 0.00 40 1022.2
20260510155312 56 319 2.0 2.0 0.00 0.00 0.00 40 1022.2
20260510154807 57 85 2.0 3.0 0.00 0.00 0.00 38 1022.3
20260510154304 56 350 2.0 2.0 0.00 0.00 0.00 40 1022.2
20260510153758 57 33 1.0 1.0 0.00 0.00 0.00 40 1022.3
20260510153254 55 355 1.0 1.0 0.00 0.00 0.00 40 1022.2
20260510152751 56 222 5.0 7.0 0.00 0.00 0.00 39 1022.2
20260510152248 54 17 1.0 1.0 0.00 0.00 0.00 40 1022.0
20260510151744 53 10 2.0 2.0 0.00 0.00 0.00 41 1022.1
20260510151243 54 215 5.0 5.0 0.00 0.00 0.00 38 1022.1
20260510150738 53 271 3.0 3.0 0.00 0.00 0.00 41 1022.0
20260510150234 54 318 0.0 1.0 0.00 0.00 0.00 40 1022.1
20260510145730 54 21 1.0 1.0 0.00 0.00 0.00 39 1022.0
20260510145227 54 215 3.0 3.0 0.00 0.00 0.00 39 1022.1
20260510144723 53 51 1.0 2.0 0.00 0.00 0.00 40 1022.0
20260510144220 52 331 2.0 2.0 0.00 0.00 0.00 41 1022.0
20260510143714 52 239 4.0 5.0 0.00 0.00 0.00 40 1021.8
20260510143212 53 230 5.0 8.0 0.00 0.00 0.00 40 1021.8
20260510142708 54 328 2.0 2.0 0.00 0.00 0.00 40 1021.8
20260510142205 54 61 2.0 2.0 0.00 0.00 0.00 39 1021.8
20260510141701 54 340 1.0 2.0 0.00 0.00 0.00 41 1021.7
20260510141200 52 80 0.0 1.0 0.00 0.00 0.00 41 1021.7
20260510140656 51 354 1.0 2.0 0.00 0.00 0.00 43 1021.6
20260510140155 53 350 2.0 2.0 0.00 0.00 0.00 42 1021.8
20260510135650 52 37 1.0 1.0 0.00 0.00 0.00 42 1021.8
20260510135147 52 44 0.0 0.0 0.00 0.00 0.00 43 1021.5
20260510134644 52 341 1.0 1.0 0.00 0.00 0.00 44 1021.8
20260510134141 51 215 2.0 2.0 0.00 0.00 0.00 44 1021.6
20260510133638 51 42 1.0 1.0 0.00 0.00 0.00 46 1021.7
20260510133133 50 249 1.0 2.0 0.00 0.00 0.00 46 1021.6
20260510132630 50 42 0.0 0.0 0.00 0.00 0.00 46 1021.6
20260510132127 50 315 1.0 1.0 0.00 0.00 0.00 48 1021.4
20260510131624 49 12 1.0 1.0 0.00 0.00 0.00 50 1021.6
20260510131122 49 8 1.0 1.0 0.00 0.00 0.00 53 1021.5
20260510130618 49 277 2.0 2.0 0.00 0.00 0.00 54 1021.6
20260510130116 48 3 1.0 2.0 0.00 0.00 0.00 59 1021.4
20260510125612 48 1 1.0 1.0 0.00 0.00 0.00 61 1021.4
20260510125108 48 30 0.0 1.0 0.00 0.00 0.00 59 1021.3
20260510124604 48 7 1.0 1.0 0.00 0.00 0.00 63 1021.2
20260510124102 46 25 0.0 0.0 0.00 0.00 0.00 66 1021.2
20260510123556 46 224 1.0 2.0 0.00 0.00 0.00 66 1021.1
20260510123053 45 27 0.0 1.0 0.00 0.00 0.00 68 1020.9
20260510122549 45 357 1.0 1.0 0.00 0.00 0.00 69 1020.9
20260510122045 44 26 1.0 1.0 0.00 0.00 0.00 69 1020.9
20260510121543 44 162 1.0 1.0 0.00 0.00 0.00 69 1021.0
20260510121040 43 50 1.0 1.0 0.00 0.00 0.00 71 1020.8
20260510120537 43 25 0.0 1.0 0.00 0.00 0.00 72 1020.9
20260510120033 43 50 1.0 1.0 0.00 0.00 0.00 74 1020.8
20260510115530 43 30 0.0 1.0 0.00 0.00 0.00 75 1020.7
20260510115027 43 23 0.0 1.0 0.00 0.00 0.00 73 1020.6
20260510114522 43 39 0.0 0.0 0.00 0.00 0.00 75 1020.4
20260510114018 43 40 0.0 0.0 0.00 0.00 0.00 73 1020.3
20260510113508 42 48 0.0 0.0 0.00 0.00 0.00 77 1020.4
20260510113006 40 47 0.0 0.0 0.00 0.00 0.00 78 1020.1
20260510112503 39 36 0.0 0.0 0.00 0.00 0.00 79 1020.1
20260510111959 40 40 0.0 0.0 0.00 0.00 0.00 78 1020.0
20260510111455 39 43 0.0 0.0 0.00 0.00 0.00 83 1020.0
20260510110951 37 43 0.0 0.0 0.00 0.00 0.00 84 1020.3
20260510110448 36 45 0.0 0.0 0.00 0.00 0.00 88 1019.9
20260510105944 34 36 0.0 0.0 0.00 0.00 0.00 90 1020.3
20260510105439 33 34 0.0 0.0 0.00 0.00 0.00 91 1019.8
20260510104935 33 37 0.0 0.0 0.00 0.00 0.00 91 1019.7
20260510104431 33 36 0.0 0.0 0.00 0.00 0.00 90 1019.8
20260510103927 33 36 0.0 0.0 0.00 0.00 0.00 90 1019.6
20260510103425 33 36 0.0 0.0 0.00 0.00 0.00 90 1019.5
20260510102920 33 35 0.0 0.0 0.00 0.00 0.00 90 1019.4
20260510102416 33 11 1.0 1.0 0.00 0.00 0.00 90 1019.1
20260510101913 33 37 0.0 0.0 0.00 0.00 0.00 90 1019.1
20260510101411 33 38 0.0 0.0 0.00 0.00 0.00 90 1019.1
20260510100908 33 38 0.0 0.0 0.00 0.00 0.00 89 1019.0
20260510100400 33 38 0.0 0.0 0.00 0.00 0.00 89 1019.0
20260510095855 33 38 0.0 0.0 0.00 0.00 0.00 89 1019.0
20260510095345 33 38 0.0 0.0 0.00 0.00 0.00 89 1018.9
20260510094844 33 38 0.0 0.0 0.00 0.00 0.00 88 1018.8
20260510094339 33 38 0.0 0.0 0.00 0.00 0.00 88 1018.4
20260510093837 33 38 0.0 0.0 0.00 0.00 0.00 87 1018.7
20260510093332 33 38 0.0 0.0 0.00 0.00 0.00 87 1018.6
20260510092829 33 38 0.0 0.0 0.00 0.00 0.00 86 1018.5
20260510092324 33 38 0.0 0.0 0.00 0.00 0.00 86 1018.5
20260510091820 34 38 0.0 0.0 0.00 0.00 0.00 85 1018.5
20260510091318 34 38 0.0 0.0 0.00 0.00 0.00 85 1018.5
20260510090814 34 38 0.0 0.0 0.00 0.00 0.00 84 1018.4
20260510090311 35 38 0.0 0.0 0.00 0.00 0.00 83 1018.5
20260510085806 35 38 0.0 0.0 0.00 0.00 0.00 83 1018.2
20260510085301 35 38 0.0 0.0 0.00 0.00 0.00 83 1018.3
20260510084757 35 38 0.0 0.0 0.00 0.00 0.00 83 1018.2
20260510084254 35 39 0.0 0.0 0.00 0.00 0.00 82 1018.1
20260510083751 36 39 0.0 0.0 0.00 0.00 0.00 82 1018.0
20260510083248 36 38 0.0 0.0 0.00 0.00 0.00 80 1018.0
20260510082744 36 37 0.0 0.0 0.00 0.00 0.00 80 1017.9
20260510082240 36 37 0.0 0.0 0.00 0.00 0.00 78 1017.7
20260510081739 37 37 0.0 0.0 0.00 0.00 0.00 78 1017.6
20260510081236 37 37 0.0 0.0 0.00 0.00 0.00 77 1017.7
20260510080731 38 37 0.0 0.0 0.00 0.00 0.00 76 1017.6
20260510080227 38 37 0.0 0.0 0.00 0.00 0.00 76 1017.6
20260510075724 39 37 0.0 0.0 0.00 0.00 0.00 75 1017.3
20260510075221 39 37 0.0 0.0 0.00 0.00 0.00 73 1017.1
20260510074718 40 36 0.0 0.0 0.00 0.00 0.00 72 1017.1
20260510074214 41 35 0.0 0.0 0.00 0.00 0.00 69 1017.0
20260510073711 41 34 0.0 0.0 0.00 0.00 0.00 66 1017.0
20260510073206 42 33 0.0 1.0 0.00 0.00 0.00 65 1017.0
20260510072703 42 37 1.0 1.0 0.00 0.00 0.00 65 1017.0
20260510072159 42 48 1.0 1.0 0.00 0.00 0.00 65 1016.8
20260510071656 42 33 0.0 0.0 0.00 0.00 0.00 64 1016.9
20260510071153 42 28 1.0 1.0 0.00 0.00 0.00 64 1016.8
20260510070650 43 29 1.0 1.0 0.00 0.00 0.00 63 1016.9
20260510070148 43 38 1.0 1.0 0.00 0.00 0.00 63 1016.9
20260510065643 42 30 0.0 1.0 0.00 0.00 0.00 64 1016.8
20260510065140 42 34 0.0 0.0 0.00 0.00 0.00 64 1016.7
20260510064636 42 39 0.0 0.0 0.00 0.00 0.00 64 1016.8
20260510064133 43 42 0.0 0.0 0.00 0.00 0.00 63 1016.8
20260510063630 43 44 0.0 0.0 0.00 0.00 0.00 62 1016.8
20260510063127 44 50 1.0 2.0 0.00 0.00 0.00 62 1016.7
20260510062623 44 20 1.0 2.0 0.00 0.00 0.00 61 1016.6
20260510062119 44 37 1.0 1.0 0.00 0.00 0.00 61 1016.6
20260510061615 44 36 1.0 1.0 0.00 0.00 0.00 61 1016.5
20260510061112 44 18 3.0 3.0 0.00 0.00 0.00 61 1016.5
20260510060608 44 322 2.0 2.0 0.00 0.00 0.00 61 1016.7
20260510060104 45 15 1.0 1.0 0.00 0.00 0.00 61 1016.7
20260510055559 45 46 2.0 2.0 0.00 0.00 0.00 61 1016.4
20260510055059 45 24 1.0 1.0 0.00 0.00 0.00 61 1016.3
20260510054549 45 3 2.0 2.0 0.00 0.00 0.00 61 1016.5
20260510054043 45 327 1.0 1.0 0.00 0.00 0.00 61 1016.3
20260510053538 46 14 3.0 3.0 0.00 0.00 0.00 60 1016.3
20260510053035 46 21 1.0 2.0 0.00 0.00 0.00 58 1016.2
20260510052531 47 40 3.0 3.0 0.00 0.00 0.00 57 1016.0
20260510052028 47 8 2.0 2.0 0.00 0.00 0.00 56 1015.8
20260510051523 47 32 3.0 6.0 0.00 0.00 0.00 57 1015.8
20260510051020 47 29 3.0 3.0 0.00 0.00 0.00 58 1015.5
20260510050518 47 16 1.0 2.0 0.00 0.00 0.00 60 1015.3
20260510050014 47 6 2.0 2.0 0.00 0.00 0.00 60 1015.3
20260510045512 47 27 1.0 2.0 0.00 0.00 0.00 59 1015.1
20260510045007 48 26 1.0 1.0 0.00 0.00 0.00 59 1015.0
20260510044505 48 31 1.0 1.0 0.00 0.00 0.00 58 1014.9
20260510044002 48 43 3.0 5.0 0.00 0.00 0.00 58 1014.8
20260510043457 48 35 1.0 1.0 0.00 0.00 0.00 60 1014.4
20260510042956 48 47 2.0 2.0 0.00 0.00 0.00 61 1014.3
20260510042452 48 18 1.0 1.0 0.00 0.00 0.00 61 1014.2
20260510041947 49 35 0.0 0.0 0.00 0.00 0.00 61 1014.0
20260510041444 48 28 1.0 2.0 0.00 0.00 0.00 62 1014.0
20260510040942 48 44 1.0 1.0 0.00 0.00 0.00 63 1013.9
20260510040439 48 48 0.0 0.0 0.00 0.00 0.00 64 1013.8
20260510035934 48 355 0.0 1.0 0.00 0.00 0.00 65 1013.6
20260510035430 48 30 0.0 1.0 0.00 0.00 0.00 68 1013.7
20260510034925 48 28 0.0 1.0 0.00 0.00 0.00 69 1013.5
20260510034424 47 43 0.0 0.0 0.00 0.00 0.00 69 1013.5
20260510033920 47 39 0.0 0.0 0.00 0.00 0.00 71 1013.4
20260510033416 46 32 0.0 0.0 0.00 0.00 0.00 72 1013.4
20260510032913 46 34 0.0 0.0 0.00 0.00 0.00 74 1013.2
20260510032410 46 34 0.0 0.0 0.00 0.00 0.00 74 1013.1
20260510031905 46 34 0.0 0.0 0.00 0.00 0.00 74 1013.1
20260510031400 46 34 0.0 0.0 0.00 0.00 0.00 74 1013.2
20260510030855 46 34 0.0 0.0 0.00 0.00 0.00 73 1013.1
20260510030352 46 34 0.0 0.0 0.00 0.00 0.00 73 1012.9
20260510025849 47 33 0.0 0.0 0.00 0.00 0.00 72 1013.0
20260510025347 47 34 0.0 0.0 0.00 0.00 0.00 71 1012.8
20260510024843 47 34 0.0 0.0 0.00 0.00 0.00 71 1012.8
20260510024340 47 34 0.0 0.0 0.00 0.00 0.00 70 1012.8
20260510023836 48 34 0.0 0.0 0.00 0.00 0.00 69 1012.7
20260510023333 48 34 0.0 0.0 0.00 0.00 0.00 68 1012.5
20260510022830 49 34 0.0 0.0 0.00 0.00 0.00 66 1012.3
20260510022329 49 34 0.0 0.0 0.00 0.00 0.00 65 1012.3
20260510021829 50 34 0.0 0.0 0.00 0.00 0.00 63 1012.2
20260510021327 51 34 0.0 0.0 0.00 0.00 0.00 62 1012.0
20260510020822 51 34 0.0 0.0 0.00 0.00 0.00 61 1012.2
20260510020317 52 32 0.0 0.0 0.00 0.00 0.00 60 1012.1
20260510015814 52 32 0.0 0.0 0.00 0.00 0.00 59 1011.8
20260510015310 53 32 0.0 0.0 0.00 0.00 0.00 58 1011.6
20260510014805 53 25 0.0 1.0 0.00 0.00 0.00 57 1011.7
20260510014302 53 34 0.0 0.0 0.00 0.00 0.00 57 1011.4
20260510013758 54 32 0.0 1.0 0.00 0.00 0.00 56 1011.4
20260510013254 54 31 0.0 0.0 0.00 0.00 0.00 56 1011.3
20260510012749 55 26 0.0 0.0 0.00 0.00 0.00 55 1011.3
20260510012244 55 29 0.0 0.0 0.00 0.00 0.00 54 1011.1
20260510011743 55 330 2.0 2.0 0.00 0.00 0.00 54 1011.0
20260510011239 55 9 1.0 1.0 0.00 0.00 0.00 54 1010.7
20260510010737 56 351 1.0 2.0 0.00 0.00 0.00 53 1010.7
20260510010233 56 14 1.0 1.0 0.00 0.00 0.00 53 1010.7
20260510005730 56 16 0.0 1.0 0.00 0.00 0.00 52 1010.6
20260510005226 57 2 1.0 2.0 0.00 0.00 0.00 51 1010.5
20260510004724 57 323 2.0 2.0 0.00 0.00 0.00 51 1010.7
20260510004222 57 312 2.0 3.0 0.00 0.00 0.00 50 1010.5
20260510003719 57 325 2.0 3.0 0.00 0.00 0.00 50 1010.4
20260510003215 58 253 3.0 5.0 0.00 0.00 0.00 49 1010.3
20260510002714 58 317 2.0 2.0 0.00 0.00 0.00 49 1010.2
20260510002212 59 344 1.0 2.0 0.00 0.00 0.00 48 1010.1
20260510001708 59 300 2.0 2.0 0.00 0.00 0.00 48 1010.1
20260510001207 59 306 3.0 3.0 0.00 0.00 0.00 48 1010.0
20260510000702 59 298 3.0 5.0 0.00 0.00 0.00 48 1010.0
20260510000200 59 22 2.0 3.0 0.00 0.00 0.00 49 1009.7
20260509235656 60 313 5.0 8.0 0.00 0.00 0.00 49 1009.6
20260509235152 60 358 2.0 2.0 0.00 0.00 0.00 50 1009.6
20260509234649 60 2 2.0 2.0 0.00 0.00 0.00 48 1009.7
20260509234146 60 346 1.0 1.0 0.00 0.00 0.00 49 1009.5
20260509233644 60 334 3.0 5.0 0.00 0.00 0.00 48 1009.6
20260509233141 60 318 2.0 2.0 0.00 0.00 0.00 47 1009.4
20260509232637 60 275 2.0 2.0 0.00 0.00 0.00 47 1009.2
20260509232134 61 286 3.0 3.0 0.00 0.00 0.00 46 1009.0
20260509231631 61 245 4.0 5.0 0.00 0.00 0.00 45 1009.0
20260509231128 62 59 4.0 6.0 0.00 0.00 0.00 44 1009.0
20260509230625 62 314 2.0 2.0 0.00 0.00 0.00 43 1009.0
20260509230122 62 314 2.0 2.0 0.00 0.00 0.00 42 1008.9
20260509225618 62 271 5.0 7.0 0.00 0.00 0.00 40 1008.6
20260509225113 62 293 4.0 5.0 0.00 0.00 0.00 39 1008.6
20260509224609 62 330 3.0 3.0 0.00 0.00 0.00 37 1008.5
20260509224106 62 15 3.0 3.0 0.00 0.00 0.00 37 1008.6
20260509223603 62 282 4.0 5.0 0.00 0.00 0.00 36 1008.5
20260509223101 63 323 3.0 3.0 0.00 0.00 0.00 36 1008.5
20260509222556 63 345 3.0 3.0 0.00 0.00 0.00 36 1008.3
20260509222053 64 262 5.0 8.0 0.00 0.00 0.00 38 1008.1
20260509221548 64 336 2.0 3.0 0.00 0.00 0.00 40 1008.1
20260509221044 64 310 3.0 3.0 0.00 0.00 0.00 40 1007.9
20260509220540 65 18 3.0 3.0 0.00 0.00 0.00 42 1007.8
20260509220037 65 268 3.0 3.0 0.00 0.00 0.00 41 1007.7
20260509215532 66 314 4.0 6.0 0.00 0.00 0.00 40 1007.5
20260509215030 66 277 3.0 5.0 0.00 0.00 0.00 42 1007.4
20260509214527 66 196 6.0 8.0 0.00 0.00 0.00 40 1007.3
20260509214024 67 248 4.0 6.0 0.00 0.00 0.00 40 1007.5
20260509213520 67 295 3.0 3.0 0.00 0.00 0.00 41 1007.3
20260509213017 66 334 2.0 2.0 0.00 0.00 0.00 42 1007.3
20260509212514 66 238 7.0 9.0 0.00 0.00 0.00 41 1007.2
20260509212011 66 168 6.0 8.0 0.00 0.00 0.00 41 1007.0
20260509211506 66 251 6.0 9.0 0.00 0.00 0.00 41 1007.2
20260509211003 66 350 3.0 3.0 0.00 0.00 0.00 42 1006.9
20260509210500 66 281 5.0 7.0 0.00 0.00 0.00 41 1007.0
20260509205956 68 251 3.0 3.0 0.00 0.00 0.00 39 1006.9
20260509205451 66 236 3.0 5.0 0.00 0.00 0.00 41 1007.2
20260509204946 66 267 5.0 7.0 0.00 0.00 0.00 40 1006.8
20260509204443 66 244 3.0 3.0 0.00 0.00 0.00 39 1006.9
20260509203940 66 231 6.0 8.0 0.00 0.00 0.00 39 1007.0
20260509203435 66 296 3.0 3.0 0.00 0.00 0.00 40 1006.9
20260509202933 66 219 7.0 9.0 0.00 0.00 0.00 39 1007.3
20260509202429 65 244 4.0 8.0 0.00 0.00 0.00 41 1007.3
20260509201924 65 230 4.0 6.0 0.00 0.00 0.00 41 1007.2
20260509201419 65 290 3.0 3.0 0.00 0.00 0.00 42 1007.4
20260509200917 65 323 3.0 3.0 0.00 0.00 0.00 42 1007.3
20260509200417 65 301 3.0 5.0 0.00 0.00 0.00 41 1007.3
20260509195914 65 250 3.0 3.0 0.00 0.00 0.00 41 1007.2
20260509195409 65 247 3.0 5.0 0.00 0.00 0.00 42 1007.3
20260509194909 64 245 3.0 3.0 0.00 0.00 0.00 42 1007.3
20260509194405 64 25 5.0 8.0 0.00 0.00 0.00 45 1007.4
20260509193901 64 309 3.0 3.0 0.00 0.00 0.00 46 1007.3
20260509193356 64 228 5.0 6.0 0.00 0.00 0.00 47 1007.4
20260509192852 63 247 3.0 3.0 0.00 0.00 0.00 48 1007.4
20260509192348 63 274 3.0 5.0 0.00 0.00 0.00 48 1007.3
20260509191844 63 303 4.0 6.0 0.00 0.00 0.00 49 1007.0
20260509191340 62 239 5.0 6.0 0.00 0.00 0.00 49 1007.0
20260509190836 62 225 3.0 5.0 0.00 0.00 0.00 51 1007.0
20260509190333 61 294 3.0 3.0 0.00 0.00 0.00 51 1007.2
20260509185830 61 172 5.0 6.0 0.00 0.00 0.00 50 1007.2
20260509185327 62 237 6.0 6.0 0.00 0.00 0.00 51 1007.2
20260509184825 62 248 6.0 8.0 0.00 0.00 0.00 50 1007.3
20260509184321 61 236 5.0 5.0 0.00 0.00 0.00 51 1007.0
20260509183818 60 331 3.0 7.0 0.00 0.00 0.00 54 1007.0
20260509183313 60 293 2.0 3.0 0.00 0.00 0.00 54 1006.9
20260509182809 59 259 3.0 5.0 0.00 0.00 0.00 56 1006.9
20260509182307 57 249 3.0 3.0 0.00 0.00 0.00 60 1007.0
20260509181803 57 225 7.0 8.0 0.00 0.00 0.00 61 1006.8
20260509181301 57 240 4.0 6.0 0.00 0.00 0.00 64 1007.2
20260509180758 57 295 5.0 6.0 0.00 0.00 0.00 63 1007.0
20260509180254 58 240 8.0 10.0 0.00 0.00 0.00 66 1007.2
20260509175750 58 218 9.0 10.0 0.00 0.00 0.00 62 1007.2
20260509175247 59 296 3.0 3.0 0.00 0.00 0.00 60 1007.3
20260509174743 59 285 2.0 2.0 0.00 0.00 0.00 62 1006.9
20260509174238 58 235 5.0 6.0 0.00 0.00 0.00 62 1006.7
20260509173735 58 337 1.0 2.0 0.00 0.00 0.00 63 1006.4
20260509173231 58 224 4.0 7.0 0.00 0.00 0.00 64 1006.5
20260509172727 58 262 3.0 3.0 0.00 0.00 0.00 64 1006.5
20260509172223 59 175 4.0 6.0 0.00 0.00 0.00 62 1006.3
20260509171718 59 210 7.0 10.0 0.00 0.00 0.00 61 1006.6
20260509171215 58 342 3.0 6.0 0.00 0.00 0.00 65 1006.7
20260509170712 57 218 4.0 6.0 0.00 0.00 0.00 64 1006.8
20260509170208 56 242 4.0 7.0 0.00 0.00 0.00 68 1007.4
20260509165707 55 217 1.0 1.0 0.00 0.00 0.00 71 1007.4
20260509165202 55 37 0.0 0.0 0.00 0.00 0.00 75 1007.6
20260509164658 55 221 3.0 3.0 0.00 0.00 0.00 71 1007.7
20260509164154 55 14 1.0 1.0 0.00 0.00 0.00 73 1007.9
20260509163652 55 19 0.0 1.0 0.00 0.00 0.00 72 1007.9
20260509163148 55 315 1.0 1.0 0.00 0.00 0.00 71 1008.0
20260509162645 55 320 2.0 2.0 0.00 0.00 0.00 72 1008.2
20260509162141 55 271 3.0 3.0 0.00 0.00 0.00 72 1007.9
20260509161637 55 298 2.0 2.0 0.00 0.00 0.00 71 1008.1
20260509161132 55 347 3.0 3.0 0.00 0.00 0.00 72 1007.6
20260509160628 55 297 3.0 3.0 0.00 0.00 0.00 71 1007.5
20260509160124 56 308 4.0 5.0 0.00 0.00 0.00 71 1007.7